TimeEST,TemperatureF,Dew PointF,Humidity,Sea Level PressureIn,VisibilityMPH,Wind Direction,Wind SpeedMPH,Gust SpeedMPH,PrecipitationIn,Events,Conditions,WindDirDegrees,DateUTC
12:04 AM,30.2,28.4,93,29.69,1.0,North,6.9,-,0.01,Snow,Light Snow,360,2013-02-28 05:04:00
12:12 AM,30.2,28.4,93,29.68,1.0,North,8.1,-,0.02,Snow,Light Snow,360,2013-02-28 05:12:00
12:49 AM,30.2,28.4,93,29.66,1.5,North,10.4,-,0.04,Snow,Light Snow,350,2013-02-28 05:49:00
12:54 AM,30.0,28.9,96,29.68,1.5,NNW,9.2,-,0.04,Snow,Light Snow,340,2013-02-28 05:54:00
1:04 AM,30.2,28.4,93,29.65,1.5,North,9.2,-,0.01,Snow,Light Snow,350,2013-02-28 06:04:00
1:12 AM,30.2,28.4,93,29.65,1.2,North,9.2,-,0.01,Snow,Light Snow,350,2013-02-28 06:12:00
1:25 AM,30.2,28.4,93,29.64,1.5,North,9.2,-,0.01,Snow,Light Snow,350,2013-02-28 06:25:00
1:43 AM,30.2,28.4,93,29.63,1.8,North,9.2,-,0.02,Snow,Light Snow,360,2013-02-28 06:43:00
2:05 AM,30.2,28.4,93,29.62,2.0,North,9.2,-,0.01,Snow,Light Snow,350,2013-02-28 07:05:00
2:15 AM,30.2,28.4,93,29.61,3.0,North,8.1,-,0.01,Snow,Light Snow,350,2013-02-28 07:15:00
2:20 AM,30.2,28.4,93,29.61,2.5,North,9.2,-,0.01,Snow,Light Snow,360,2013-02-28 07:20:00
2:33 AM,30.2,28.4,93,29.60,3.0,NNW,9.2,-,0.01,Snow,Light Snow,340,2013-02-28 07:33:00
2:54 AM,30.9,28.9,92,29.61,4.0,North,6.9,-,0.01,Snow,Light Snow,360,2013-02-28 07:54:00
3:09 AM,30.2,28.4,93,29.59,4.0,North,9.2,-,0.00,Rain,Light Freezing Rain,360,2013-02-28 08:09:00
3:49 AM,30.2,30.2,100,29.59,4.0,North,9.2,-,0.00,Rain,Light Freezing Rain,350,2013-02-28 08:49:00
3:54 AM,30.9,30.0,96,29.60,4.0,NNW,6.9,-,0.00,Rain,Light Freezing Rain,340,2013-02-28 08:54:00
4:54 AM,32.0,30.9,96,29.60,4.0,NNW,4.6,-,0.01,Rain,Light Freezing Rain,330,2013-02-28 09:54:00
5:54 AM,32.0,30.9,96,29.60,4.0,NNW,4.6,-,0.00,Rain,Light Freezing Rain,340,2013-02-28 10:54:00
6:22 AM,32.0,30.2,93,29.59,5.0,NNW,3.5,-,0.00,Rain,Light Freezing Rain,330,2013-02-28 11:22:00
6:33 AM,32.0,30.2,93,29.59,4.0,NNW,4.6,-,0.00,,Overcast,330,2013-02-28 11:33:00
6:54 AM,32.0,32.0,100,29.62,7.0,NW,3.5,-,0.00,,Overcast,310,2013-02-28 11:54:00
7:54 AM,33.1,32.0,96,29.61,10.0,Calm,Calm,-,N/A,,Overcast,0,2013-02-28 12:54:00
8:54 AM,34.0,32.0,92,29.60,10.0,Calm,Calm,-,N/A,,Overcast,0,2013-02-28 13:54:00
9:54 AM,35.1,33.1,92,29.61,6.0,Calm,Calm,-,0.00,Rain,Light Rain,0,2013-02-28 14:54:00
10:54 AM,36.0,33.1,89,29.61,8.0,North,4.6,-,0.00,,Overcast,10,2013-02-28 15:54:00
11:15 AM,37.4,33.8,87,29.59,7.0,NNW,3.5,-,N/A,,Overcast,340,2013-02-28 16:15:00
11:54 AM,37.0,35.1,93,29.61,7.0,Calm,Calm,-,N/A,,Overcast,0,2013-02-28 16:54:00
12:54 PM,37.9,34.0,86,29.59,5.0,North,5.8,-,N/A,,Overcast,360,2013-02-28 17:54:00
1:54 PM,39.0,35.1,86,29.57,10.0,NNE,4.6,-,N/A,,Overcast,20,2013-02-28 18:54:00
2:12 PM,39.2,35.6,87,29.55,10.0,North,4.6,-,N/A,,Overcast,10,2013-02-28 19:12:00
2:37 PM,37.4,35.6,93,29.55,10.0,NNE,5.8,-,N/A,,Overcast,30,2013-02-28 19:37:00
2:46 PM,37.4,35.6,93,29.55,10.0,NNE,6.9,-,N/A,,Overcast,30,2013-02-28 19:46:00
2:54 PM,37.9,35.1,89,29.57,10.0,NNE,5.8,-,N/A,,Overcast,30,2013-02-28 19:54:00
3:54 PM,37.9,34.0,86,29.57,10.0,NE,5.8,-,N/A,,Overcast,40,2013-02-28 20:54:00
4:04 PM,37.4,33.8,87,29.55,10.0,NE,4.6,-,N/A,,Overcast,50,2013-02-28 21:04:00
4:54 PM,37.0,34.0,89,29.57,10.0,NE,6.9,-,N/A,,Overcast,40,2013-02-28 21:54:00
5:54 PM,36.0,34.0,93,29.58,10.0,North,3.5,-,0.00,Rain,Light Rain,360,2013-02-28 22:54:00
6:22 PM,35.6,33.8,93,29.56,10.0,NE,5.8,-,0.00,,Overcast,40,2013-02-28 23:22:00
7:29 PM,35.6,33.8,93,29.57,10.0,NE,4.6,-,0.00,Rain,Light Rain,40,2013-03-01 00:29:00
7:37 PM,35.6,33.8,93,29.57,10.0,Calm,Calm,-,0.00,Rain,Light Rain,0,2013-03-01 00:37:00
8:34 PM,33.8,32.0,93,29.57,10.0,Calm,Calm,-,0.00,,Overcast,0,2013-03-01 01:34:00
8:47 PM,33.8,32.0,93,29.57,10.0,North,3.5,-,0.01,,Overcast,350,2013-03-01 01:47:00
9:08 PM,33.8,32.0,93,29.57,10.0,Calm,Calm,-,N/A,,Overcast,0,2013-03-01 02:08:00
9:46 PM,33.8,30.2,87,29.57,10.0,NNW,3.5,-,N/A,,Overcast,340,2013-03-01 02:46:00
9:54 PM,33.1,30.9,92,29.58,10.0,NNW,3.5,-,N/A,,Overcast,340,2013-03-01 02:54:00
11:30 PM,33.8,30.2,87,29.54,10.0,Calm,Calm,-,N/A,,Overcast,0,2013-03-01 04:30:00
11:54 PM,33.1,30.9,92,29.56,10.0,Calm,Calm,-,N/A,,Overcast,0,2013-03-01 04:54:00